Home > Weather > Salvador > Past weeks

Flag for Brazil Weather for the Past 2 Weeks in Salvador, Bahia, Brazil

Now
82 °F

Passing clouds.


Feels Like: 87 °F
Forecast: 76 / 84 °F
Wind: 13 mph from Southeast

Location: Salvador Aeroporto

Current Time: Feb 5, 2016 at 10:44:29 PM

Latest Report: Feb 5, 2016 at 10:00 PM


Visibility: N/A

Pressure: 30.01 "Hg

Humidity: 70%

Dew point: 72 °F

Location of SalvadorLocation

Historic Weather in Salvador — Graph

°F

Salvador Temperature Yesterday

Maximum temperature yesterday: 88 °F (at 12:00 PM)
Minimum temperature yesterday: 77 °F (at 6:00 AM)
Average temperature yesterday: 83 °F

High & Low Weather Summary for the Past Weeks

 TemperatureHumidityPressure
High90 °F (Jan 28, 12:00 PM)100% (Jan 23, 1:00 PM)30.04 "Hg (Jan 23, 1:00 PM)
Low41 °F (Jan 23, 1:00 PM)55% (Jan 30, 12:00 PM)29.83 "Hg (Jan 22, 2:00 AM)
Average81 °F74%29.95 "Hg
* Reported Jan 21 9:00 PM — Feb 5 9:00 PM, Salvador, Weather by CustomWeather, © 2016

Note: Actual official high and low records may vary slightly from our data, if they occured in-between our weather recording intervals... More about our weather records

Advertising

Salvador Weather History for the Previous 24 Hours

 ConditionsComfort  
Time TempWeatherWind HumidityBarometerVisibility
9:00 PM
Fri, Feb 5
82 °FPassing clouds.12 mph66%30.01 "HgN/A
8:00 PM82 °FPassing clouds.9 mph70%29.98 "HgN/A
7:00 PM82 °FPassing clouds.10 mph70%29.98 "HgN/A
6:00 PM82 °FPassing clouds.10 mph70%29.98 "HgN/A
5:00 PM84 °FPassing clouds.12 mph66%29.95 "HgN/A
4:00 PM86 °FPassing clouds.12 mph66%29.95 "HgN/A
3:00 PM88 °FPassing clouds.13 mph62%29.98 "HgN/A
2:00 PM88 °FPassing clouds.12 mph59%29.98 "HgN/A
1:00 PM88 °FPassing clouds.14 mph59%30.01 "HgN/A
12:00 PM88 °FScattered clouds.12 mph59%30.01 "HgN/A
11:00 AM88 °FScattered clouds.14 mph59%30.04 "HgN/A
10:00 AM88 °FScattered clouds.12 mph62%30.04 "HgN/A
9:00 AM86 °FScattered clouds.12 mph66%30.01 "HgN/A
8:00 AM86 °FScattered clouds.5 mph66%30.01 "HgN/A
7:00 AM82 °FScattered clouds.2 mph74%29.98 "HgN/A
6:00 AM79 °FPassing clouds.3 mph84%29.98 "HgN/A
5:00 AM79 °FPassing clouds.2 mph79%29.95 "HgN/A
4:00 AM79 °FPassing clouds.3 mph79%29.95 "HgN/A
3:00 AM81 °FPassing clouds.6 mph74%29.92 "HgN/A
2:00 AM81 °FPassing clouds.8 mph74%29.92 "HgN/A
1:00 AM81 °FPassing clouds.8 mph74%29.95 "HgN/A
12:00 AM82 °FPassing clouds.10 mph70%29.95 "HgN/A
11:00 PM
Thu, Feb 4
82 °FPassing clouds.10 mph70%29.95 "HgN/A
10:00 PM82 °FPassing clouds.10 mph70%29.95 "HgN/A
Weather by CustomWeather, © 2016

See weather overviewHow to use our weather pages